スペースウォッチ彗星

C/2007 VO53 ( Spacewatch )

English version
Home page
Updated on December 15, 2011

---------------------------------------------------------------------

・ プロフィール

発見日 2007年11月1日
発見光度 20.6〜20.8等
発見者 Spacewatch survey

・ 写真集

・ 軌道要素

Epoch 2010 May 4.0 TT = JDT 2455320.5
T 2010 Apr. 26.49833 TT                                 MPC
q   4.8426348            (2000.0)            P               Q
z  +0.0000549      Peri.   75.02982     +0.08637427     -0.49858228
 +/-0.0000005      Node    59.73683     -0.15559127     -0.86189136
e   0.9997344      Incl.   86.99033     +0.98403803     -0.09251480
From 603 observations 2007 Oct. 20-2011 Sept. 21, mean residual 0".5.

・ 星図

・ 光度変化

        m1 = 6.0 + 5 logΔ + 11.0 log r(t - 50)

---------------------------------------------------------------------

軌道要素はM.P.E.C. 2011-S56に掲載されたものです。
星図はステラナビゲータ Ver.8 (アストロアーツ) で作成したものです。
光度グラフはComet for Windowsで作成したものです。

---------------------------------------------------------------------

Copyright(C) Seiichi Yoshida (comet@aerith.net). All rights reserved.